Temperature
8 8 8 7 7 6 6 5 4 3 3 4 3 2 1 1 -0 -1 -1 -1 -1 -1 -1 -1 -2 -2 -3 -3 -4 -4 -4 -4 -4 -4 -4 -4 -4 -3
7 7 6 6 5 4 4 3 2 2 1 1 1 1 0 -0 -1 -1 -2 -2 -2 -2 -2 -3 -3 -3 -4 -4 -4 -4 -5 -5 -5 -5 -5 -4 -4 -4
5 5 4 4 3 3 2 2 1 0 -0 -0 -0 -1 -1 -1 -1 -2 -2 -3 -3 -3 -3 -3 -4 -4 -4 -5 -5 -5 -5 -5 -5 -5 -5 -5 -5 -4
4 4 3 2 2 1 0 -0 -1 -1 -2 -2 -2 -2 -2 -2 -3 -3 -4 -4 -4 -4 -4 -4 -4 -4 -4 -5 -5 -5 -5 -5 -6 -6 -6 -5 -5 -5
3 3 2 1 0 -0 -1 -1 -2 -2 -3 -3 -3 -4 -4 -4 -4 -5 -5 -5 -4 -4 -4 -4 -4 -5 -5 -5 -5 -5 -5 -5 -5 -6 -6 -6 -6 -6
2 2 1 0 -0 -1 -2 -2 -3 -3 -4 -4 -5 -5 -5 -5 -6 -7 -6 -6 -5 -5 -4 -5 -5 -5 -5 -5 -5 -5 -5 -5 -5 -5 -6 -6 -6 -6
2 1 0 -1 -1 -2 -2 -3 -4 -4 -5 -6 -6 -7 -7 -7 -7 -8 -8 -7 -6 -5 -5 -5 -5 -5 -4 -5 -5 -5 -5 -5 -5 -6 -6 -6 -6 -6
1 -0 -1 -2 -2 -3 -3 -4 -5 -5 -6 -7 -7 -8 -8 -8 -8 -8 -8 -8 -8 -7 -7 -6 -6 -5 -5 -5 -5 -5 -5 -5 -6 -6 -6 -6 -6 -6
-0 -1 -2 -2 -3 -3 -4 -4 -5 -5 -7 -8 -8 -8 -8 -8 -9 -9 -9 -9 -9 -8 -8 -7 -6 -6 -6 -6 -5 -5 -5 -5 -5 -6 -6 -6 -6 -7
-2 -2 -3 -3 -4 -4 -5 -5 -6 -6 -7 -8 -8 -8 -9 -9 -9 -9 -9 -9 -8 -7 -7 -8 -6 -6 -6 -6 -5 -5 -5 -5 -6 -6 -6 -6 -7 -7
-3 -3 -4 -4 -4 -5 -7 -8 -8 -7 -8 -8 -8 -8 -8 -8 -8 -8 -8 -8 -8 -7 -7 -8 -7 -7 -7 -5 -5 -5 -5 -6 -6 -6 -6 -6 -6 -7
-4 -4 -5 -5 -6 -7 -8 -9 -8 -8 -8 -7 -7 -7 -7 -7 -8 -8 -8 -9 -9 -9 -8 -8 -8 -9 -9 -7 -6 -6 -6 -6 -6 -6 -6 -6 -6 -7
-5 -5 -6 -6 -8 -9 -9 -9 -9 -9 -9 -8 -8 -7 -7 -7 -7 -8 -8 -8 -9 -9 -8 -9 -9 -9 -10 -9 -7 -6 -6 -6 -6 -6 -6 -6 -6 -7
-6 -6 -7 -8 -9 -9 -9 -9 -9 -9 -8 -8 -8 -7 -7 -7 -7 -7 -7 -8 -8 -8 -8 -8 -9 -9 -10 -10 -9 -7 -6 -6 -6 -6 -6 -6 -7 -7
-7 -7 -8 -8 -8 -8 -8 -8 -8 -8 -8 -8 -8 -8 -8 -8 -7 -7 -7 -7 -7 -7 -7 -8 -8 -9 -10 -10 -10 -8 -7 -6 -6 -6 -6 -7 -7 -7
-8 -8 -8 -8 -8 -8 -8 -8 -8 -9 -9 -9 -8 -8 -8 -8 -7 -7 -7 -7 -6 -6 -6 -7 -8 -8 -9 -8 -9 -8 -7 -7 -6 -6 -7 -7 -6 -6
-8 -8 -8 -8 -8 -8 -8 -8 -8 -8 -8 -8 -8 -8 -8 -8 -7 -7 -7 -7 -7 -7 -6 -6 -7 -7 -8 -8 -8 -7 -7 -7 -7 -7 -8 -8 -7 -6
-8 -8 -8 -9 -9 -9 -9 -8 -8 -8 -8 -8 -8 -8 -8 -8 -8 -7 -7 -7 -7 -7 -7 -6 -7 -7 -7 -7 -7 -8 -8 -8 -8 -8 -9 -9 -9 -7
-9 -9 -9 -9 -9 -9 -9 -9 -8 -8 -8 -8 -8 -8 -8 -8 -8 -7 -7 -7 -7 -7 -7 -7 -8 -9 -10 -10 -8 -7 -9 -8 -8 -8 -8 -9 -9 -7
-9 -9 -9 -9 -9 -9 -9 -9 -8 -8 -8 -8 -8 -8 -8 -8 -8 -7 -7 -7 -7 -7 -7 -7 -8 -9 -9 -9 -9 -7 -7 -8 -8 -8 -8 -8 -7 -7
-9 -9 -9 -9 -9 -9 -9 -9 -8 -8 -8 -8 -8 -8 -8 -8 -8 -7 -7 -7 -8 -8 -8 -8 -7 -8 -9 -9 -9 -8 -6 -6 -7 -8 -8 -8 -8 -7
-9 -9 -9 -9 -9 -9 -9 -9 -8 -8 -8 -8 -8 -8 -8 -8 -8 -8 -8 -8 -8 -8 -8 -8 -8 -8 -8 -9 -9 -8 -7 -5 -5 -6 -6 -7 -7 -7
-9 -9 -9 -9 -9 -9 -9 -8 -8 -8 -8 -8 -8 -8 -8 -8 -8 -8 -8 -8 -8 -8 -8 -8 -8 -8 -8 -8 -8 -8 -7 -7 -6 -6 -4 -5 -6 -6
Wind_Speed
8 8 6 4 4 4 3 4 4 3 4 3 2 2 5 5 10 11 11 17 21 21 22 22 22 22 23 24 24 24 25 25 25 26 26 27 27 27
8 9 7 4 4 3 3 2 2 4 4 3 4 3 5 8 12 13 15 19 20 21 21 22 23 24 24 24 24 25 25 26 26 27 27 27 28 28
9 9 7 5 3 3 2 2 2 3 5 4 3 3 4 6 11 14 15 16 16 20 23 23 23 24 24 24 25 25 25 26 27 27 28 28 28 29
9 8 6 4 3 2 2 2 3 4 5 6 3 3 6 7 7 8 13 15 16 21 23 23 23 24 23 24 24 25 26 27 28 28 29 29 29 30
9 7 5 4 3 2 2 3 3 4 5 5 5 4 5 5 6 7 9 11 16 18 21 22 22 22 23 24 26 27 28 28 29 29 29 29 30 30
8 7 5 3 3 3 3 5 5 5 5 5 6 6 6 6 5 6 9 6 9 14 19 19 20 22 24 27 28 29 29 29 29 29 29 29 29 30
7 5 3 2 2 3 4 5 5 5 5 5 6 6 6 5 6 6 11 9 9 9 8 8 11 13 19 25 26 27 28 28 29 29 29 29 30 30
6 4 2 1 1 3 6 7 7 6 5 4 5 7 8 7 8 9 10 12 8 4 5 10 9 12 12 17 25 28 29 30 30 29 29 29 30 30
5 4 2 1 2 3 6 9 9 12 12 8 8 8 9 9 10 11 11 12 13 8 10 15 10 13 11 20 27 29 31 31 30 29 28 28 28 28
4 3 1 2 3 6 6 5 6 7 10 8 8 10 10 10 10 11 11 10 10 9 8 11 12 13 13 13 25 29 30 28 27 26 26 27 27 28
3 2 1 3 8 10 6 5 6 7 11 16 17 17 20 21 18 9 7 8 12 10 5 5 6 8 11 12 16 22 23 25 27 28 29 29 28 28
1 1 4 6 10 11 5 4 6 7 7 8 9 13 13 15 17 7 5 8 8 7 4 4 5 6 8 6 7 9 15 23 28 29 29 28 27 17
1 1 3 9 10 11 10 4 9 10 4 5 7 8 8 7 6 6 6 7 10 9 7 5 6 5 6 8 7 9 11 12 13 17 23 27 26 20
1 3 5 10 11 11 9 11 15 11 4 6 7 8 8 8 9 8 10 11 13 14 15 12 10 10 11 14 12 9 9 10 12 15 13 20 21 23
2 6 8 10 10 7 10 13 9 4 5 6 8 8 7 8 9 9 9 9 12 16 19 16 13 13 13 14 13 14 14 12 12 11 10 10 11 12
3 4 6 8 8 9 8 7 5 5 6 7 8 9 9 8 8 8 9 11 11 11 9 14 12 13 13 15 15 17 15 10 10 11 12 14 13 12
1 1 3 4 5 5 5 5 5 5 6 7 8 9 10 10 10 8 7 8 9 11 14 9 7 10 14 15 15 17 16 15 14 13 13 15 14 12
4 3 3 4 5 6 7 7 7 6 6 7 8 8 9 10 11 10 8 10 11 13 13 13 12 13 9 10 17 17 15 15 14 13 14 16 17 12
3 3 4 5 5 6 6 6 7 7 7 7 8 8 9 9 10 11 10 10 12 13 13 12 11 11 14 17 9 13 13 15 15 15 13 14 17 15
2 4 4 5 6 6 6 7 8 8 7 7 8 8 8 9 10 11 11 12 13 14 14 12 10 11 13 16 16 17 16 14 14 16 15 14 15 19
4 4 5 5 6 6 6 7 7 8 8 8 9 9 8 9 10 11 12 17 16 13 15 15 13 19 14 12 13 14 13 14 16 16 16 16 16 14
5 5 6 6 6 6 7 7 8 8 9 8 9 9 9 9 11 13 13 13 13 14 15 15 14 13 11 14 16 17 19 19 18 22 21 19 13 9
5 6 6 7 6 6 6 7 9 9 9 9 9 9 10 11 11 12 13 14 13 15 15 15 14 11 12 13 15 16 19 19 16 16 15 18 20 22
Wind_Direction
125 117 109 100 91 91 106 128 151 209 261 270 265 233 231 296 322 318 307 310 309 307 304 301 298 297 295 293 291 290 289 288 286 284 282 281 279 278
114 109 97 93 91 86 98 105 134 175 237 259 253 256 271 293 303 310 304 307 308 305 301 299 298 296 294 292 291 290 289 287 285 283 281 279 278 277
107 107 100 99 103 105 107 132 164 175 235 265 261 273 280 282 293 296 297 293 291 301 301 298 296 295 293 293 291 290 288 286 284 282 280 279 278 278
108 108 110 117 124 141 164 194 207 207 224 261 269 272 267 273 275 282 295 297 294 298 300 299 298 296 295 293 291 290 288 287 285 283 280 278 277 276
112 114 119 127 146 176 202 224 234 236 223 245 267 257 265 273 280 281 283 286 292 296 298 298 297 295 294 294 294 293 291 288 285 282 279 277 275 274
105 105 114 138 179 210 226 232 237 245 243 250 265 267 265 267 268 284 296 285 291 294 291 291 291 294 294 294 293 291 289 287 284 281 279 276 274 272
101 99 103 121 227 229 235 232 228 238 248 256 269 276 277 282 285 286 298 298 286 277 277 274 280 282 285 287 289 288 286 285 283 281 279 277 275 273
108 100 95 88 336 311 294 285 266 253 252 249 265 276 282 281 285 290 295 302 299 267 280 290 283 286 284 281 285 287 287 287 286 285 283 280 278 275
109 111 104 70 9 305 296 295 292 291 288 282 280 279 283 283 284 287 285 286 289 289 295 293 285 284 283 284 288 289 290 289 288 287 284 281 279 276
116 123 145 268 288 284 261 263 264 273 282 282 264 269 272 275 272 284 292 293 285 281 275 284 288 285 285 280 285 286 287 288 288 288 287 285 284 281
124 155 230 267 296 304 295 272 274 275 291 295 296 298 301 304 305 303 300 302 300 296 268 264 282 289 289 280 275 280 284 288 290 289 288 286 284 281
134 273 302 302 303 307 297 279 284 282 283 295 303 303 298 296 301 292 276 286 293 295 259 258 283 306 300 268 257 268 279 284 286 287 287 286 285 284
188 258 277 305 310 313 320 312 298 309 314 310 303 299 297 291 289 278 261 260 276 276 275 278 280 274 272 290 286 273 273 278 283 284 286 285 284 280
253 260 272 306 321 327 328 316 317 328 332 309 302 300 301 300 299 291 280 265 258 264 273 274 274 277 282 287 290 288 280 278 280 282 279 283 283 280
272 306 319 330 338 336 324 325 335 333 309 305 301 297 292 286 293 295 291 281 275 269 267 261 260 268 271 276 279 287 295 293 280 272 273 271 270 273
316 332 344 345 343 333 331 329 317 301 303 299 300 299 300 296 295 297 302 309 306 297 261 247 249 256 269 272 276 281 282 279 281 278 279 280 274 265
10 39 355 342 338 330 321 312 307 310 308 301 299 302 303 303 301 302 294 299 293 297 305 301 258 249 254 264 274 274 277 279 277 280 283 285 279 267
12 358 336 328 322 318 316 314 310 302 298 298 296 294 296 299 301 301 294 295 295 295 296 301 307 307 292 262 239 258 271 278 283 282 280 284 285 275
12 324 309 303 299 295 293 293 294 292 292 289 287 288 291 293 295 298 300 298 296 295 294 294 295 298 305 308 281 236 260 283 288 288 283 279 282 283
307 293 290 290 290 289 289 290 292 295 292 288 286 286 286 289 292 294 295 295 298 300 300 296 288 289 293 296 297 293 278 274 284 289 291 286 281 280
292 284 280 281 283 282 282 283 283 287 286 286 286 284 285 287 289 290 293 296 299 298 299 300 293 294 292 291 292 294 294 281 279 286 291 291 292 290
283 283 283 279 280 280 280 282 285 284 285 284 284 285 286 285 287 291 293 296 296 295 294 295 295 297 296 298 299 301 304 306 301 294 285 276 281 285
278 282 282 281 277 277 276 277 280 283 282 282 284 285 287 288 289 289 290 291 293 296 300 303 305 302 299 298 300 301 302 306 309 310 304 294 285 276
Height
1493 1496 1498 1500 1502 1503 1504 1504 1506 1504 1503 1502 1502 1499 1497 1494 1491 1487 1484 1481 1478 1476 1473 1470 1468 1465 1463 1461 1459 1458 1456 1455 1454 1453 1452 1451 1451 1451
1487 1490 1493 1495 1497 1498 1499 1499 1500 1500 1498 1497 1496 1495 1492 1488 1485 1480 1477 1473 1470 1467 1465 1462 1459 1457 1455 1453 1451 1449 1447 1446 1445 1443 1443 1442 1441 1441
1482 1485 1488 1490 1492 1493 1494 1494 1495 1494 1492 1491 1490 1488 1485 1482 1478 1474 1470 1466 1463 1460 1457 1454 1451 1449 1447 1445 1442 1440 1438 1437 1435 1434 1433 1432 1431 1431
1478 1481 1483 1485 1487 1488 1489 1489 1489 1488 1486 1483 1481 1480 1478 1475 1470 1466 1462 1459 1456 1453 1450 1447 1444 1442 1439 1437 1434 1432 1430 1427 1426 1424 1423 1421 1420 1420
1474 1476 1478 1481 1482 1483 1483 1483 1483 1482 1480 1476 1473 1472 1470 1467 1462 1458 1455 1451 1448 1445 1442 1439 1437 1434 1432 1429 1426 1423 1420 1417 1415 1413 1411 1410 1409 1408
1471 1473 1475 1476 1477 1478 1478 1477 1477 1476 1474 1470 1468 1465 1462 1459 1455 1450 1445 1443 1440 1437 1435 1432 1429 1427 1424 1421 1417 1414 1411 1407 1405 1403 1401 1399 1398 1397
1468 1470 1471 1472 1472 1472 1473 1472 1471 1469 1467 1464 1462 1459 1455 1452 1449 1444 1439 1434 1431 1429 1425 1423 1420 1417 1415 1412 1408 1405 1401 1398 1395 1392 1390 1389 1387 1386
1465 1466 1466 1467 1468 1468 1468 1467 1466 1464 1461 1458 1456 1453 1449 1446 1443 1438 1434 1428 1423 1421 1417 1413 1412 1407 1405 1402 1399 1395 1392 1388 1385 1382 1380 1378 1376 1374
1461 1462 1462 1463 1464 1463 1462 1461 1460 1458 1456 1454 1450 1446 1443 1440 1437 1432 1429 1424 1419 1415 1411 1403 1402 1398 1396 1392 1389 1386 1382 1379 1375 1372 1370 1367 1365 1363
1459 1459 1460 1460 1459 1457 1456 1454 1453 1451 1449 1446 1443 1440 1437 1434 1431 1428 1423 1417 1412 1409 1406 1397 1392 1389 1385 1381 1379 1376 1373 1369 1366 1362 1360 1357 1355 1352
1456 1456 1456 1455 1454 1452 1451 1449 1446 1444 1443 1440 1437 1435 1432 1429 1426 1421 1416 1410 1404 1400 1399 1392 1384 1378 1372 1369 1368 1365 1362 1359 1356 1352 1349 1346 1343 1340
1453 1453 1452 1450 1449 1447 1446 1443 1440 1438 1435 1432 1431 1429 1426 1423 1420 1416 1411 1405 1399 1392 1389 1386 1378 1373 1361 1355 1355 1354 1351 1348 1345 1341 1338 1334 1331 1328
1450 1449 1447 1445 1444 1443 1441 1438 1435 1433 1429 1427 1424 1422 1419 1417 1414 1410 1406 1401 1395 1389 1386 1381 1373 1368 1363 1351 1344 1343 1341 1336 1333 1329 1326 1323 1321 1318
1446 1444 1443 1441 1440 1438 1435 1432 1430 1427 1424 1422 1419 1416 1413 1410 1407 1404 1400 1396 1391 1385 1380 1376 1368 1363 1356 1348 1339 1333 1331 1328 1323 1319 1316 1313 1311 1309
1442 1440 1439 1437 1435 1432 1430 1427 1425 1422 1420 1417 1414 1411 1408 1405 1401 1397 1393 1389 1383 1379 1374 1368 1362 1356 1351 1343 1334 1327 1321 1317 1314 1310 1306 1302 1299 1296
1438 1437 1435 1433 1431 1428 1426 1424 1421 1419 1416 1413 1410 1407 1403 1400 1396 1392 1386 1380 1374 1369 1367 1362 1356 1350 1343 1336 1329 1321 1315 1309 1304 1301 1296 1291 1288 1285
1435 1433 1431 1429 1427 1425 1423 1421 1419 1416 1413 1410 1407 1403 1399 1395 1391 1387 1381 1375 1369 1362 1356 1354 1349 1342 1335 1329 1321 1314 1308 1301 1296 1291 1286 1280 1276 1274
1432 1430 1428 1426 1424 1421 1419 1417 1415 1413 1410 1407 1403 1399 1395 1390 1386 1382 1377 1371 1364 1358 1351 1346 1340 1332 1325 1319 1315 1307 1300 1293 1288 1283 1278 1272 1264 1262
1430 1427 1425 1423 1421 1419 1417 1414 1412 1409 1406 1403 1399 1395 1391 1386 1382 1376 1371 1366 1359 1352 1346 1340 1334 1328 1320 1310 1303 1301 1294 1286 1280 1274 1269 1264 1257 1250
1427 1425 1423 1421 1418 1416 1414 1411 1408 1405 1402 1399 1395 1391 1387 1382 1377 1372 1366 1360 1353 1346 1339 1334 1329 1324 1318 1309 1298 1289 1288 1281 1274 1267 1260 1254 1247 1242
1424 1422 1420 1418 1415 1413 1410 1407 1404 1401 1398 1394 1390 1386 1382 1377 1372 1366 1361 1355 1349 1342 1334 1327 1323 1318 1312 1303 1294 1283 1277 1274 1268 1261 1253 1246 1238 1232
1421 1419 1417 1415 1412 1409 1406 1403 1400 1397 1393 1389 1385 1381 1377 1372 1367 1361 1355 1349 1343 1336 1329 1322 1316 1310 1304 1298 1289 1279 1269 1263 1257 1252 1246 1240 1235 1226
1418 1415 1413 1411 1408 1405 1402 1399 1395 1392 1388 1384 1380 1376 1371 1366 1361 1356 1350 1344 1337 1331 1324 1317 1310 1304 1298 1292 1283 1274 1265 1256 1249 1241 1236 1233 1228 1222